[Date Prev][Date Next][Thread Prev][Thread Next] - [Date Index][Thread Index][Author Index]

RE: TDRS Catalog numbers?



TDRS East and West are also known as TDRS-4 and TDRS-5.  You can find 
their NORAD catalog numbers from the two-line elements:

TDRS 4
1 19883U 89021B   98104.16575877 -.00000269  00000-0  10000-3 0  4095
2 19883   1.2495  85.0388 0003603 285.9728 209.8579  1.00274146205784
TDRS 5
1 21639U 91054B   98107.17253840  .00000000  00000-0  10000-3 0  2745
2 21639   0.3022  90.5595 0005157 327.7914  34.5662  1.00274297 24569

So TDRS-E is 19883, and TDRS-W is 21639.

Pete Greene, N2LVI

______________________________ Reply Separator
_________________________________
Subject: TDRS Catalog numbers?
Author:  tmangels@juno.com at MAILHUB-SMTP
Date:    4/17/1998 11:01 PM


Can anyone provide catalog numbers for the current TDRS East and West 
satellites?

Tom WA1JVV

_____________________________________________________________________
You don't 
need to buy Internet access to use free Internet e-mail. Get completely
free 
e-mail from Juno at http://www.juno.com
Or call Juno at (800) 654-JUNO [654-5866]



AMSAT Top AMSAT Home